#timestamp,LO_Frequency,Hit,StdDev 
1512972015.3,286046998.4,N
1512972035.1,286046995.0,N
1512972055.9,286046995.6,N
1512972075.7,286046999.8,N
1512972095.6,286047002.0,N
1512972115.4,286047002.0,N
1512972135.2,286047002.7,N
1512972155.1,286047002.0,N
1512972156.0,286047002.0,N
1512972175.8,286047004.2,N
1512972195.6,286046998.9,N
1512972215.5,286046997.4,N
1512972235.3,286046993.9,N
1512972255.2,286046996.1,N
1512972275.9,286046998.5,N
1512972295.7,286046999.1,N
1512972315.6,286046999.6,N
1512972335.4,286047001.6,N
1512972355.3,286047000.0,N
1512972375.1,286047000.0,N
1512972376.0,286047000.0,N
1512972395.8,286047000.8,N
1512972415.7,286047004.0,N
1512972435.5,286047002.7,N
1512972455.3,286047001.5,N
1512972475.2,286047002.8,N
1512972495.0,286047004.4,N
1512972495.9,286047004.4,N
1512972515.8,286047005.8,N
1512972535.6,286046999.7,N
1512972555.4,286046998.1,N
1512972575.3,286046999.4,N
1512972595.1,286047000.1,N
1512972615.9,286047000.3,N
1512972635.7,286046997.2,N
1512972655.5,286046990.9,Y
1512972675.4,286046993.3,P
1512972695.2,286046994.1,N
1512972715.1,286046992.2,N
1512972716.0,286046992.2,N
1512972735.8,286046994.8,N
1512972755.6,286046998.0,N
1512972775.5,286046997.1,N
1512972795.3,286046995.7,N
1512972815.1,286046994.1,N
1512972835.9,286046989.8,Y
1512972855.7,286046995.5,P
1512972875.6,286046994.1,P
1512972895.4,286046994.6,P
1512972915.2,286046993.2,Y
1512972935.1,286046998.2,P
1512972936.0,286046998.2,N
1512972955.8,286046998.8,N
1512972975.7,286046999.5,N
1512972995.5,286047001.0,N
1512973015.3,286046999.2,N
1512973035.2,286046999.3,N
1512973055.0,286046998.3,N
1512973055.9,286046998.3,N
1512973075.8,286047002.2,N
1512973095.6,286046994.9,N
1512973115.4,286046997.0,N
1512973135.3,286046992.1,Y
1512973155.1,286046999.8,P
1512973175.8,286047000.0,N
1512973195.7,286046998.6,N
1512973215.5,286047001.8,N
1512973235.4,286046999.9,N
1512973255.2,286047001.7,N
1512973275.0,286047002.6,N
1512973275.9,286047002.6,N
1512973295.8,286047002.1,N
1512973315.6,286047002.7,N
1512973335.5,286047002.1,N
1512973355.3,286047000.5,N
1512973375.1,286047001.3,N
1512973395.9,286046998.1,N
1512973415.7,286047000.4,N
1512973435.5,286046999.9,N
1512973455.4,286046999.1,N
1512973475.2,286047002.8,N
1512973495.1,286046998.4,N
1512973496.0,286046998.4,N
1512973515.8,286046998.3,N
1512973535.6,286046997.6,N
1512973555.5,286047001.1,N
1512973575.3,286046992.3,Y
1512973595.1,286046987.3,P
1512973615.9,286046986.5,N
1512973635.7,286046984.7,N
1512973655.6,286046987.5,N
1512973675.4,286046992.2,N
1512973695.2,286046993.5,N
1512973715.1,286046999.5,N
1512973716.0,286046999.5,N
1512973735.8,286046994.1,N
1512973755.7,286046994.6,N
1512973775.5,286046992.4,N
1512973795.3,286046992.7,N
1512973815.2,286046986.3,N
1512973835.0,286046982.3,Y
1512973835.9,286046982.3,P
1512973855.8,286046991.4,N
1512973875.6,286046985.1,P
1512973895.4,286046979.8,Y
1512973915.3,286046990.5,P
1512973935.1,286046983.7,P
1512973955.8,286046982.5,P
1512973975.7,286046982.6,Y
1512973995.5,286046997.2,P
1512974015.4,286047001.2,N
1512974035.2,286046998.8,N
1512974055.0,286047002.8,N
1512974055.9,286047002.8,N
1512974075.8,286047007.6,N
1512974095.6,286047009.2,N
1512974115.5,286047010.6,N
1512974135.3,286047006.2,N
1512974155.1,286047007.2,N
1512974175.9,286047012.4,N
1512974195.7,286047012.8,N
1512974215.5,286047018.2,N
1512974235.4,286047020.4,N
1512974255.2,286047020.1,N
1512974275.1,286047019.1,N
1512974276.0,286047019.1,N
1512974295.8,286047022.5,N
1512974315.6,286047023.3,N
1512974335.5,286047023.5,N
1512974355.3,286047023.0,N
1512974375.1,286047024.6,N
1512974395.9,286047022.0,N
1512974415.7,286047026.3,N
1512974435.6,286047029.1,N
1512974455.4,286047028.4,N
1512974475.2,286047024.1,N
1512974495.1,286047028.4,N
1512974496.0,286047028.4,N
1512974515.8,286047027.2,N
1512974535.7,286047027.7,N
1512974555.5,286047028.2,Y
1512974575.3,286047009.4,P
1512974595.2,286047006.2,N
1512974615.0,286047012.3,N
1512974615.9,286047012.3,N
1512974635.7,286047009.9,N
1512974655.6,286047011.3,Y
1512974675.4,286047002.5,P
1512974695.3,286046998.8,N
1512974715.1,286047000.7,N
1512974735.8,286046992.3,N
1512974755.7,286046990.8,N
1512974775.5,286046993.3,N
1512974795.4,286046990.6,N
1512974815.2,286046989.7,N
1512974835.0,286046995.7,N
1512974835.9,286046995.7,N
1512974855.8,286046999.4,N
1512974875.6,286046998.6,N
1512974895.5,286046998.5,N
1512974915.3,286046999.5,N
1512974935.1,286046998.9,N
1512974955.9,286047001.1,N
1512974975.7,286047003.8,N
1512974995.5,286047001.4,N
1512975015.4,286047003.9,N
1512975035.2,286047003.3,N
1512975055.1,286046999.0,N
1512975056.0,286046999.0,N
1512975075.8,286047002.9,N
1512975095.6,286047007.4,N
1512975115.5,286047002.4,N
1512975135.3,286047002.8,N
1512975155.2,286047003.3,N
1512975175.9,286047002.5,N
1512975195.7,286047003.3,N
1512975215.6,286047001.7,N
1512975235.4,286046996.6,N
1512975255.3,286046998.1,N
1512975275.1,286046999.0,N
1512975276.0,286046999.0,N
1512975295.8,286046999.9,N
1512975315.7,286046995.9,N
1512975335.5,286046996.0,N
1512975355.3,286046997.2,N
1512975375.2,286046999.2,N
1512975395.0,286047002.8,N
1512975395.9,286047002.8,N
1512975415.8,286047000.1,N
1512975435.6,286047004.1,N
1512975455.4,286047005.8,N
1512975475.3,286047003.7,N
1512975495.1,286047001.0,N
1512975515.9,286047004.2,N
1512975535.7,286047003.2,N
1512975555.5,286047004.0,N
1512975575.4,286047001.6,N
1512975595.2,286047001.7,N
